This is the latest recevied weather packets stored in our database for station/object KC0QBU-13. If no packets are shown the sender has not sent any weather packets the latest 10 day(s).
| Time | Temp. | Humidity | Pressure | Rain* | Wind** | Luminosity | Snow |
|---|---|---|---|---|---|---|---|
| 1777841572 | 27.78° C | 29% | 1010.8 hPa | 0 mm | - | - | - |
| 1777841242 | 27.78° C | 31% | 1010.8 hPa | 0 mm | - | - | - |
| 1777840912 | 27.78° C | 30% | 1011 hPa | 0 mm | - | - | - |
| 1777840612 | 27.78° C | 33% | 1011 hPa | 0 mm | - | - | - |
| 1777840311 | 27.78° C | 35% | 1011.1 hPa | 0 mm | - | - | - |
| 1777839981 | 27.78° C | 34% | 1011.2 hPa | 0 mm | - | - | - |
| 1777839681 | 27.22° C | 36% | 1011.4 hPa | 0 mm | - | - | - |
| 1777839352 | 27.22° C | 35% | 1011.3 hPa | 0 mm | - | - | - |
| 1777839051 | 27.22° C | 35% | 1011.4 hPa | 0 mm | - | - | - |
| 1777838751 | 27.22° C | 38% | 1011.5 hPa | 0 mm | - | - | - |
| 1777838452 | 27.78° C | 35% | 1011.5 hPa | 0 mm | - | - | - |
| 1777838151 | 27.22° C | 35% | 1011.6 hPa | 0 mm | - | - | - |
| 1777837821 | 27.22° C | 36% | 1011.7 hPa | 0 mm | - | - | - |
| 1777837491 | 26.67° C | 35% | 1011.8 hPa | 0 mm | - | - | - |
| 1777837191 | 27.22° C | 37% | 1011.9 hPa | 0 mm | - | - | - |
| 1777836892 | 26.67° C | 36% | 1011.8 hPa | 0 mm | - | - | - |
| 1777836561 | 26.11° C | 36% | 1011.9 hPa | 0 mm | - | - | - |
| 1777836232 | 26.67° C | 37% | 1012.1 hPa | 0 mm | - | - | - |
| 1777835932 | 26.67° C | 36% | 1012.1 hPa | 0 mm | - | - | - |
| 1777835631 | 26.11° C | 36% | 1012.2 hPa | 0 mm | - | - | - |
| 1777835331 | 26.11° C | 37% | 1012.3 hPa | 0 mm | - | - | - |
| 1777835001 | 26.11° C | 36% | 1012.2 hPa | 0 mm | - | - | - |
| 1777834671 | 26.11° C | 36% | 1012.4 hPa | 0 mm | - | - | - |
| 1777834371 | 26.11° C | 36% | 1012.5 hPa | 0 mm | - | - | - |
| 1777834071 | 26.11° C | 37% | 1012.5 hPa | 0 mm | - | - | - |
* Rain latest hour (hover to see other rain measurements)
** Current wind speed in m/s (hover to see current wind gust speed)